[[{"header":{"parameterUnit":"m.s-1","parameterCategory":1,"la1":30.2991,"la2":30.254,"lo1":-89.0895,"lo2":-89.0444,"dy":0.0017,"dx":0.0017,"nx":28,"ny":28,"refTime":"2024-02-17T09:00:00:Z","depth":0,"parameterNumber":2,"parameterNumberName":"U-component_of_WINDS"},"data":[0,0,0,0,0,0,0,0,0,0,0,0,0,0,0,0,0,0,0,0,0,0,0,0,0,0,0,0,0,0,0,0,0,0,0,0,0,0,0,0,0,0,0,0,0,0,0,0,0,0,0,0,0,0,0,0,0,0,0.0592,0.0592,0,0.0576,0.0576,0.0576,0.0576,0.0576,0.0576,0.0577,0.0559,0.0559,0.0558,0,0,0,0,0,0,0,0,0,0,0,0,0,0.0623,0.0623,0.0592,0.0592,0.0592,0.0576,0.0576,0.0576,0.0576,0.0576,0.0576,0.0577,0.056,0.0559,0.0558,0,0,0,0,0,0,0,0,0,0,0,0,0,0.0609,0.0622,0.0592,0.059,0.059,0.0576,0.0576,0.0575,0.0576,0.0576,0.0576,0.0577,0.056,0.0559,0.0558,0.0545,0,0,0.0555,0.0554,0,0,0,0,0,0,0,0,0.0609,0.0607,0.059,0.059,0.059,0.0578,0.058,0.0565,0.0576,0.0581,0.0577,0.0577,0.0565,0.0564,0.056,0.0544,0.0544,0.0555,0.0554,0.0554,0.0554,0,0,0,0,0,0,0,0.061,0.0608,0.0586,0.059,0.059,0.059,0.0588,0.0578,0.0572,0.0581,0.0581,0.0579,0.0565,0.0561,0.056,0.0543,0.0555,0.0554,0.0553,0.0553,0.0517,0.0517,0,0,0,0,0,0,0.0612,0.0609,0.0586,0.0585,0.0601,0.0589,0.0587,0.0582,0.0572,0.057,0.0578,0.0579,0.0563,0.0561,0.0559,0.0544,0.0554,0.0553,0.0552,0.0517,0.0517,0.0517,0,0,0,0,0,0,0.0613,0.061,0.0587,0.0597,0.0594,0.0588,0.0582,0.0581,0.0577,0.057,0.0569,0.0575,0.0563,0.0561,0.0549,0.0543,0.0552,0.0552,0.0518,0.0517,0.0517,0.0512,0,0,0,0,0,0,0.0614,0.061,0.0605,0.0597,0.0594,0.0577,0.0582,0.0581,0.0575,0.0576,0.0567,0.0566,0.0563,0.055,0.0548,0.0542,0.0551,0.0518,0.0518,0.0517,0.0513,0.0512,0.0511,0,0,0,0,0,0.0615,0.0604,0.0605,0.0602,0.0587,0.0576,0.0574,0.0572,0.0575,0.057,0.0566,0.0566,0.0544,0.0549,0.0546,0.054,0.0519,0.0518,0.0517,0.0514,0.0512,0.0511,0,0,0,0,0,0,0.0611,0.0603,0.0604,0.059,0.0584,0.0576,0.057,0.057,0.0562,0.0563,0.056,0.0558,0.0546,0.0542,0.0547,0.0527,0.0532,0.053,0.053,0.0529,0.0528,0.0529,0.055,0,0,0,0,0,0.0609,0.0601,0.0594,0.0583,0.058,0.0576,0.0571,0.0569,0.0563,0.056,0.0555,0.0548,0.054,0.0534,0.0526,0.0513,0.0511,0.0507,0.0506,0.0505,0.0504,0.0497,0.0495,0.0514,0.0514,0.0514,0,0,0.0604,0.0599,0.0594,0.0583,0.0578,0.0569,0.0573,0.0564,0.0558,0.0558,0.0547,0.0543,0.0535,0.0523,0.0517,0.0519,0.0498,0.0504,0.0504,0.0503,0.0496,0.0494,0.0492,0.0513,0.0513,0.0513,0,0,0.0591,0.0587,0.0577,0.0572,0.0565,0.0562,0.056,0.0552,0.055,0.0538,0.0538,0.0531,0.0517,0.0512,0.0507,0.0493,0.0493,0.0491,0.0485,0.0478,0.0476,0.0475,0.047,0.0468,0.049,0.049,0.049,0,0.0586,0.0574,0.0572,0.0563,0.0558,0.0559,0.0549,0.0544,0.0534,0.0531,0.0534,0.0516,0.0511,0.0498,0.0495,0.0491,0.0488,0.0491,0.0477,0.0475,0.0474,0.0469,0.0467,0.0489,0.0489,0.049,0.049,0,0.0568,0.0559,0.0552,0.0543,0.0538,0.0528,0.0525,0.052,0.0519,0.0516,0.0505,0.0499,0.049,0.0487,0.0486,0.0474,0.0475,0.0477,0.0482,0.0472,0.0467,0.0465,0.0489,0.0489,0.0489,0.0489,0,0,0.0551,0.0542,0.0539,0.0535,0.0528,0.0521,0.0512,0.0504,0.0499,0.0493,0.0485,0.0474,0.0476,0.0471,0.047,0.0464,0.0453,0.0466,0.0466,0.0464,0.0439,0.0436,0.0434,0.0454,0.0453,0.0453,0.0439,0,0.0536,0.052,0.0519,0.0505,0.0497,0.0498,0.049,0.0485,0.0482,0.0475,0.0472,0.0464,0.0468,0.0465,0.0459,0.0456,0.0448,0.0457,0.0446,0.0446,0.0447,0.0432,0.0429,0.0416,0.0437,0.0437,0.0437,0,0.0517,0.051,0.0495,0.049,0.0486,0.0479,0.0472,0.0465,0.0459,0.0458,0.0453,0.0453,0.0444,0.0449,0.0437,0.0443,0.0439,0.0436,0.0436,0.0434,0.044,0.0429,0.0412,0.041,0.0434,0.0434,0.0434,0,0.0505,0.0493,0.0483,0.0479,0.0472,0.0467,0.0464,0.0459,0.0454,0.0448,0.0445,0.0437,0.0433,0.0428,0.0426,0.043,0.0413,0.0419,0.0411,0.0411,0.0407,0.0407,0.0389,0.0406,0.0406,0.0406,0.0406,0,0.0489,0.048,0.0477,0.0471,0.046,0.046,0.0449,0.0447,0.0442,0.0435,0.0436,0.0429,0.0428,0.0421,0.0419,0.0409,0.0407,0.0406,0.0405,0.0405,0.0405,0.0402,0.0402,0.0405,0.0405,0.0405,0.0406,0,0.0474,0.0472,0.0461,0.0455,0.0454,0.0446,0.0442,0.0436,0.0434,0.0425,0.0423,0.042,0.0412,0.041,0.04,0.0399,0.0387,0.0388,0.0389,0.0389,0.0381,0.0382,0.0359,0.0356,0.0376,0.0376,0.0376,0,0.0463,0.0456,0.045,0.0446,0.0442,0.0435,0.0431,0.043,0.0425,0.0418,0.0413,0.0405,0.0399,0.0386,0.0383,0.0376,0.0376,0.0369,0.0375,0.0375,0.0375,0.0375,0.0375,0.0367,0.0367,0.0367,0.0367,0,0.0444,0.0444,0.0437,0.043,0.0425,0.0419,0.0414,0.041,0.0409,0.0404,0.0396,0.0391,0.0382,0.0374,0.0367,0.0364,0.0365,0.0365,0.0363,0.0362,0.0363,0.0362,0.0385,0.0365,0.0365,0.0366,0.0366,0.0366,0.043,0.0424,0.0419,0.0412,0.0408,0.0403,0.0397,0.0395,0.0389,0.0381,0.0381,0.0373,0.0368,0.0359,0.0355,0.0349,0.0351,0.0348,0.0347,0.0346,0.0345,0.0365,0.0347,0.0347,0.0347,0.0348,0.0348,0,0.041,0.0408,0.0401,0.0394,0.0388,0.0391,0.0386,0.0381,0.0373,0.0369,0.0363,0.0354,0.0347,0.0344,0.0337,0.0332,0.0332,0.033,0.033,0.0329,0.0344,0.0346,0.033,0.033,0.033,0.033,0.033,0.033,0.0399,0.0389,0.0388,0.0376,0.0374,0.0365,0.0362,0.0358,0.0355,0.0345,0.0339,0.0337,0.0333,0.0326,0.032,0.0319,0.0316,0.0314,0.0313,0.0327,0.0328,0.033,0.0332,0.0313,0.0313,0.0299,0.0299,0.0299]},{"header":{"parameterUnit":"m.s-1","parameterCategory":1,"la1":30.2991,"la2":30.254,"lo1":-89.0895,"lo2":-89.0444,"dy":0.0017,"dx":0.0017,"nx":28,"ny":28,"refTime":"2024-02-17T09:00:00:Z","depth":0,"parameterNumber":3,"parameterNumberName":"V-component_of_WINDS"},"data":[0,0,0,0,0,0,0,0,0,0,0,0,0,0,0,0,0,0,0,0,0,0,0,0,0,0,0,0,0,0,0,0,0,0,0,0,0,0,0,0,0,0,0,0,0,0,0,0,0,0,0,0,0,0,0,0,0,0,-4.3295,-4.3295,0,-4.3342,-4.3342,-4.3343,-4.3327,-4.3325,-4.3324,-4.3324,-4.3366,-4.3368,-4.337,0,0,0,0,0,0,0,0,0,0,0,0,0,-4.3187,-4.3189,-4.3294,-4.3295,-4.3296,-4.3341,-4.3342,-4.3343,-4.3327,-4.3325,-4.3324,-4.3323,-4.3366,-4.3368,-4.3371,0,0,0,0,0,0,0,0,0,0,0,0,0,-4.3234,-4.319,-4.3294,-4.3293,-4.3294,-4.3341,-4.3342,-4.3343,-4.3327,-4.3325,-4.3324,-4.3322,-4.3365,-4.3368,-4.3371,-4.3421,0,0,-4.3381,-4.3382,0,0,0,0,0,0,0,0,-4.3231,-4.3238,-4.3293,-4.3294,-4.3294,-4.3327,-4.332,-4.3369,-4.3327,-4.3314,-4.3323,-4.3322,-4.3354,-4.3358,-4.337,-4.3423,-4.3425,-4.3381,-4.3383,-4.3384,-4.3385,0,0,0,0,0,0,0,-4.3228,-4.3235,-4.3313,-4.3294,-4.3294,-4.3289,-4.3294,-4.3329,-4.3342,-4.3315,-4.3314,-4.332,-4.3354,-4.3367,-4.3371,-4.3425,-4.3381,-4.3384,-4.3386,-4.3387,-4.3523,-4.3525,0,0,0,0,0,0,-4.3225,-4.3233,-4.3311,-4.3314,-4.3258,-4.3292,-4.3298,-4.3318,-4.3342,-4.3344,-4.3321,-4.3319,-4.3362,-4.3367,-4.3372,-4.3434,-4.3384,-4.3387,-4.3389,-4.3522,-4.3524,-4.3526,0,0,0,0,0,0,-4.3223,-4.3232,-4.3309,-4.3273,-4.3283,-4.3296,-4.3318,-4.3319,-4.3332,-4.3346,-4.3348,-4.3333,-4.3361,-4.3368,-4.341,-4.3435,-4.3388,-4.3391,-4.352,-4.3522,-4.3525,-4.3557,0,0,0,0,0,0,-4.322,-4.3231,-4.3251,-4.3274,-4.3285,-4.3347,-4.332,-4.3321,-4.3339,-4.3336,-4.3357,-4.3359,-4.3361,-4.3405,-4.3413,-4.3439,-4.3394,-4.3517,-4.3521,-4.3524,-4.3553,-4.356,-4.3566,0,0,0,0,0,-4.3216,-4.3257,-4.3252,-4.3262,-4.331,-4.3349,-4.3355,-4.3357,-4.3341,-4.336,-4.337,-4.3359,-4.3431,-4.341,-4.3418,-4.3445,-4.3516,-4.352,-4.3524,-4.3551,-4.3559,-4.3566,0,0,0,0,0,0,-4.3234,-4.3259,-4.3255,-4.3305,-4.3325,-4.3346,-4.3371,-4.3365,-4.3389,-4.3386,-4.3386,-4.3391,-4.3435,-4.3444,-4.3419,-4.3496,-4.3471,-4.3477,-4.3488,-4.3496,-4.3502,-4.35,-4.3396,0,0,0,0,0,-4.3244,-4.3275,-4.3295,-4.3337,-4.3347,-4.3358,-4.3374,-4.3375,-4.3395,-4.3403,-4.3415,-4.3434,-4.3461,-4.3479,-4.3504,-4.3554,-4.3559,-4.3577,-4.3583,-4.3589,-4.3594,-4.3623,-4.3631,-4.3539,-4.3539,-4.3539,0,0,-4.3264,-4.3282,-4.3301,-4.3341,-4.3357,-4.3388,-4.3365,-4.3398,-4.3421,-4.3407,-4.3449,-4.3459,-4.3479,-4.3526,-4.3547,-4.3535,-4.3621,-4.3594,-4.3597,-4.36,-4.3628,-4.3636,-4.3644,-4.3541,-4.3541,-4.354,0,0,-4.3318,-4.3334,-4.3372,-4.339,-4.3415,-4.3422,-4.3431,-4.3454,-4.346,-4.3502,-4.3494,-4.352,-4.3566,-4.3582,-4.3596,-4.3659,-4.365,-4.3667,-4.3699,-4.3727,-4.3735,-4.3741,-4.3765,-4.3773,-4.3672,-4.3672,-4.3672,0,-4.334,-4.3388,-4.3392,-4.3427,-4.3445,-4.3437,-4.3475,-4.3491,-4.3522,-4.3534,-4.3521,-4.3581,-4.3594,-4.3645,-4.3661,-4.3672,-4.3683,-4.3665,-4.3734,-4.374,-4.3746,-4.3769,-4.3778,-4.3674,-4.3674,-4.3673,-4.3673,0,-4.3415,-4.3448,-4.3475,-4.351,-4.353,-4.3567,-4.3575,-4.3595,-4.3594,-4.3602,-4.3646,-4.3662,-4.3692,-4.3703,-4.3701,-4.3755,-4.3747,-4.3734,-4.3709,-4.3757,-4.3779,-4.3787,-4.3677,-4.3676,-4.3675,-4.3675,0,0,-4.348,-4.3518,-4.3528,-4.3544,-4.3573,-4.3598,-4.3634,-4.3665,-4.3684,-4.3705,-4.3736,-4.3776,-4.3765,-4.3781,-4.3781,-4.3805,-4.3856,-4.3789,-4.379,-4.3802,-4.3918,-4.3929,-4.3939,-4.385,-4.3852,-4.3853,-4.3917,0,-4.3538,-4.3604,-4.3609,-4.3668,-4.37,-4.3693,-4.3725,-4.3745,-4.3754,-4.3781,-4.3789,-4.3819,-4.3801,-4.3811,-4.3835,-4.3845,-4.3879,-4.384,-4.3878,-4.388,-4.3875,-4.395,-4.3961,-4.4021,-4.3925,-4.3926,-4.3927,0,-4.3613,-4.3642,-4.3705,-4.3731,-4.3744,-4.3773,-4.3803,-4.3829,-4.3852,-4.3857,-4.3876,-4.3873,-4.3909,-4.3883,-4.3934,-4.3907,-4.3923,-4.393,-4.3932,-4.3937,-4.3907,-4.3958,-4.4039,-4.4049,-4.394,-4.3939,-4.3938,0,-4.3657,-4.371,-4.3756,-4.3769,-4.38,-4.3821,-4.3834,-4.3856,-4.3875,-4.3901,-4.3914,-4.3942,-4.3958,-4.398,-4.3985,-4.3965,-4.4036,-4.4009,-4.4041,-4.4041,-4.4056,-4.4056,-4.4143,-4.4065,-4.4064,-4.4064,-4.4064,0,-4.3722,-4.3761,-4.3776,-4.3804,-4.3848,-4.3853,-4.3896,-4.3908,-4.3928,-4.3957,-4.3951,-4.3979,-4.3983,-4.4011,-4.4014,-4.4057,-4.4063,-4.4068,-4.4069,-4.4069,-4.4069,-4.408,-4.4077,-4.4067,-4.4066,-4.4066,-4.4065,0,-4.3778,-4.379,-4.384,-4.3866,-4.3874,-4.3905,-4.3927,-4.3953,-4.3962,-4.4,-4.4009,-4.4022,-4.4055,-4.4062,-4.41,-4.4102,-4.4153,-4.4149,-4.4147,-4.4146,-4.4178,-4.4176,-4.4277,-4.4292,-4.4202,-4.4203,-4.4204,0,-4.3819,-4.385,-4.3881,-4.3902,-4.3917,-4.395,-4.3971,-4.3977,-4.3998,-4.4028,-4.4051,-4.4084,-4.4111,-4.4164,-4.4176,-4.4206,-4.4203,-4.4237,-4.4207,-4.4208,-4.4205,-4.4204,-4.4208,-4.4242,-4.4243,-4.4244,-4.4245,0,-4.3892,-4.3897,-4.3928,-4.3962,-4.3987,-4.4013,-4.4038,-4.4055,-4.4064,-4.4088,-4.4124,-4.4145,-4.4186,-4.4219,-4.4249,-4.4261,-4.4255,-4.4254,-4.4263,-4.4265,-4.4263,-4.4266,-4.4163,-4.4252,-4.4251,-4.4251,-4.425,-4.425,-4.3943,-4.3971,-4.3998,-4.4033,-4.4053,-4.4077,-4.4104,-4.4118,-4.4148,-4.4184,-4.4185,-4.4224,-4.4246,-4.4287,-4.4301,-4.4331,-4.432,-4.4333,-4.4336,-4.434,-4.4344,-4.4258,-4.4336,-4.4336,-4.4336,-4.4335,-4.4335,0,-4.4016,-4.4034,-4.4067,-4.4103,-4.4131,-4.4125,-4.4152,-4.4176,-4.4211,-4.4234,-4.4262,-4.4303,-4.4335,-4.4351,-4.4383,-4.4404,-4.4402,-4.4412,-4.4411,-4.4414,-4.4351,-4.434,-4.4413,-4.4413,-4.4413,-4.4413,-4.4413,-4.4413,-4.4058,-4.4106,-4.4114,-4.4172,-4.4188,-4.4229,-4.4245,-4.4267,-4.4286,-4.4333,-4.4361,-4.4372,-4.4392,-4.4426,-4.4456,-4.4459,-4.4472,-4.4484,-4.4486,-4.4426,-4.4419,-4.4411,-4.4402,-4.4486,-4.4486,-4.4548,-4.4548,-4.4549]}]]